Weather Roundup
Issued by NWS

Home | Current Version | Previous Version | Graphics & Text | Print | Product List | Glossary Off
Versions: 1 2 3 4 5 6 7 8 9 10 11 12 13 14 15 16 17 18 19 20 21 22 23 24 25 26 27 28 29 30 31 32 33 34 35 36 37 38 39 40 41 42 43 44 45 46 47 48 49 50

000
NZUS93 KARX 050510
HRRWXR

CURRENT HOURLY OBSERVATIONS ACROSS
MUCH OF THE UPPER MISSISSIPPI VALLEY
NATIONAL WEATHER SERVICE LA CROSSE WI
1200 AM CDT SUN JUL 05 2015


...SOUTHEAST MINNESOTA...


CITY           SKY/WX    TMP DP  RH WIND       PRES   REMARKS
ROCHESTER      CLEAR     64  60  87 S7        30.00R
ROCHESTER/MAYO FAIR      69  60  71 S7        29.99R
WINONA         CLEAR     70  61  73 CALM      29.97S
AUSTIN         CLEAR     66  61  82 S5        29.99R
ALBERT LEA     CLEAR     70  61  73 S7        29.98R
DODGE CENTER   CLEAR     64  61  88 S7        29.99R
PRESTON        CLEAR     64  59  81 SW6       30.01R
OWATONNA       CLEAR     68  59  73 S8        29.98R
FARIBAULT      CLEAR     66  61  82 S3        29.97R
$$

...ELSEWHERE IN MINNESOTA...


CITY           SKY/WX    TMP DP  RH WIND       PRES   REMARKS
MINNEAPOLIS    CLEAR     74  61  63 S8        29.95R
INTNL FALLS    CLOUDY    71  61  70 VRB3      29.84R HAZE
DULUTH         PTCLDY    61  55  81 E7        29.94F
RED WING       CLEAR     70  61  73 CALM      29.95R
REDWOOD FALLS  CLEAR     67  62  84 S9        29.91S
MANKATO        CLEAR     66  59  77 S7        29.95R
WORTHINGTON    CLEAR     66  57  72 S13       29.94S
FAIRMONT       CLEAR     63  55  77 S7        29.96R
$$

...SOUTHWEST WISCONSIN...


CITY           SKY/WX    TMP DP  RH WIND       PRES   REMARKS
LA CROSSE      CLEAR     70  66  87 S5        29.97R
PRAIRIE DU CHI CLEAR     64  60  87 CALM      29.99S
BOSCOBEL       FOG       63  61  93 CALM      30.00R VSB 1
LONE ROCK      CLEAR     62  58  86 NE3       30.01R
PLATTEVILLE    CLEAR     66  63  88 S7        30.01S
FORT MC COY    CLEAR     62  59  91 CALM      30.00R
CAMP DOUGLAS   CLEAR     63  63 100 MISG      30.00R
VIROQUA        FAIR      67  61  80 S6        30.01R
WIS DELLS      CLEAR     62  58  86 CALM      30.00S
$$

...ELSEWHERE IN WISCONSIN...


CITY           SKY/WX    TMP DP  RH WIND       PRES   REMARKS
MILWAUKEE      PTCLDY    68  55  63 S6        30.02S
MADISON        CLEAR     66  62  87 CALM      30.01R FOG
GREEN BAY      CLEAR     65  61  87 CALM      30.00R
EAU CLAIRE     CLEAR     69  64  84 S3        29.96R HAZE
BLACK RVR FLS  FAIR      60  60 100 CALM      29.98R FOG
MEDFORD        CLEAR     67  64  89 SW5       30.00R
WAUSAU         CLEAR     70  64  81 S3        29.99R HAZE
WIS RAPIDS     CLEAR     66  61  84 S3        30.01R
MARSHFIELD     MOCLDY    65  61  87 S5        30.00R FOG
RICE LAKE      CLEAR     67  63  89 SE3       29.98R FOG
$$

...NORTHEAST IOWA...


CITY           SKY/WX    TMP DP  RH WIND       PRES   REMARKS
DECORAH          N/A    N/A N/A N/A MISG        N/A
MASON CITY     CLEAR     62  59  90 S6        30.00R
CHARLES CITY   CLEAR     64  64 100 S6        30.01R
OELWEIN        CLEAR     63  61  94 S6        30.02R
$$

...ELSEWHERE IN IOWA...


CITY           SKY/WX    TMP DP  RH WIND       PRES   REMARKS
DES MOINES     PTCLDY    69  60  73 S6        29.99R
IOWA CITY      CLEAR     67  61  81 SE3       30.02R
FORT DODGE     CLEAR     66  59  77 SE5       29.99R
$$

...NORTHERN ILLINOIS...


CITY           SKY/WX    TMP DP  RH WIND       PRES   REMARKS
CHICAGO-OHARE  PTCLDY    67  57  70 CALM      30.03S SMOKE
CHICAGO-MIDWAY PTCLDY    72  58  61 CALM      30.03S SMOKE
MOLINE         CLEAR     65  60  84 CALM      30.02R
ROCKFORD       PTCLDY    67  60  78 CALM      30.04R
PEORIA         CLEAR     68  62  81 CALM      30.03S HAZE
$$

NOTE: "FAIR" INDICATES FEW OR NO CLOUDS BELOW 12,000 FEET WITH NO
SIGNIFICANT WEATHER AND/OR OBSTRUCTIONS TO VISIBILITY. WIND
SPEEDS ARE IN MILES-PER-HOUR.



USA.gov is the U.S. government's official web portal to all federal, state and local government web resources and services.